Time,TemperatureF,DewpointF,PressureIn,WindDirection,WindDirectionDegrees,WindSpeedMPH,WindSpeedGustMPH,Humidity,HourlyPrecipIn,Conditions,Clouds,dailyrainin,SoftwareType,DateUTC
2013-02-08 00:03:00,28.5,23.0,30.09,NW,326,0.0,2.0,81,0.00,,,0.00,weatherlink.com 1.10,2013-02-08 06:03:00,
2013-02-08 00:18:00,28.3,24.0,30.09,NW,326,0.0,0.0,82,0.00,,,0.00,weatherlink.com 1.10,2013-02-08 06:18:00,
2013-02-08 00:33:00,28.1,23.0,30.10,NW,326,0.0,3.0,82,0.00,,,0.00,weatherlink.com 1.10,2013-02-08 06:33:00,
2013-02-08 00:48:00,28.1,24.0,30.11,NW,326,0.0,1.0,83,0.00,,,0.00,weatherlink.com 1.10,2013-02-08 06:48:00,
2013-02-08 01:03:00,28.1,24.0,30.11,NW,326,0.0,2.0,83,0.00,,,0.00,weatherlink.com 1.10,2013-02-08 07:03:00,
2013-02-08 01:18:00,28.3,24.0,30.11,North,9,0.0,5.0,82,0.00,,,0.00,weatherlink.com 1.10,2013-02-08 07:18:00,
2013-02-08 01:33:00,28.4,24.0,30.11,ENE,57,0.0,2.0,82,0.00,,,0.00,weatherlink.com 1.10,2013-02-08 07:33:00,
2013-02-08 01:48:00,28.4,24.0,30.11,ENE,57,0.0,2.0,82,0.00,,,0.00,weatherlink.com 1.10,2013-02-08 07:48:00,
2013-02-08 02:03:00,28.4,24.0,30.11,NNW,327,0.0,2.0,83,0.00,,,0.00,weatherlink.com 1.10,2013-02-08 08:03:00,
2013-02-08 02:18:00,28.2,24.0,30.11,NNW,327,0.0,2.0,84,0.00,,,0.00,weatherlink.com 1.10,2013-02-08 08:18:00,
2013-02-08 02:33:00,28.0,24.0,30.12,NNW,327,0.0,1.0,84,0.00,,,0.00,weatherlink.com 1.10,2013-02-08 08:33:00,
2013-02-08 02:49:00,27.8,24.0,30.12,NNE,26,0.0,3.0,85,0.00,,,0.00,weatherlink.com 1.10,2013-02-08 08:49:00,
2013-02-08 03:03:00,27.4,24.0,30.13,NNE,27,0.0,2.0,86,0.00,,,0.00,weatherlink.com 1.10,2013-02-08 09:03:00,
2013-02-08 03:18:00,27.1,24.0,30.13,NNE,27,0.0,1.0,86,0.00,,,0.00,weatherlink.com 1.10,2013-02-08 09:18:00,
2013-02-08 03:34:00,26.9,23.0,30.13,ENE,59,1.0,2.0,86,0.00,,,0.00,weatherlink.com 1.10,2013-02-08 09:34:00,
2013-02-08 03:48:00,26.6,23.0,30.13,ENE,59,0.0,1.0,86,0.00,,,0.00,weatherlink.com 1.10,2013-02-08 09:48:00,
2013-02-08 04:04:00,26.5,23.0,30.13,NW,322,0.0,2.0,86,0.00,,,0.00,weatherlink.com 1.10,2013-02-08 10:04:00,
2013-02-08 04:18:00,26.3,23.0,30.13,NNW,327,0.0,2.0,87,0.00,,,0.00,weatherlink.com 1.10,2013-02-08 10:18:00,
2013-02-08 04:34:00,26.1,23.0,30.13,East,80,0.0,1.0,87,0.00,,,0.00,weatherlink.com 1.10,2013-02-08 10:34:00,
2013-02-08 04:49:00,25.8,23.0,30.14,NE,41,0.0,1.0,88,0.00,,,0.00,weatherlink.com 1.10,2013-02-08 10:49:00,
2013-02-08 05:03:00,25.6,23.0,30.14,ESE,112,0.0,3.0,88,0.00,,,0.00,weatherlink.com 1.10,2013-02-08 11:03:00,
2013-02-08 05:18:00,25.4,23.0,30.14,SE,138,0.0,5.0,89,0.00,,,0.00,weatherlink.com 1.10,2013-02-08 11:18:00,
2013-02-08 05:33:00,25.2,22.0,30.14,East,98,0.0,0.0,89,0.00,,,0.00,weatherlink.com 1.10,2013-02-08 11:33:00,
2013-02-08 06:04:00,25.2,23.0,30.15,SSE,156,0.0,0.0,90,0.00,,,0.00,weatherlink.com 1.10,2013-02-08 12:04:00,
2013-02-08 06:19:00,25.3,23.0,30.15,SSE,156,0.0,2.0,90,0.00,,,0.00,weatherlink.com 1.10,2013-02-08 12:19:00,
2013-02-08 06:34:00,25.4,23.0,30.16,SSE,156,0.0,0.0,90,0.00,,,0.00,weatherlink.com 1.10,2013-02-08 12:34:00,
2013-02-08 06:49:00,25.4,23.0,30.16,SSE,165,0.0,2.0,90,0.00,,,0.00,weatherlink.com 1.10,2013-02-08 12:49:00,
2013-02-08 07:04:00,25.3,23.0,30.16,ESE,113,0.0,2.0,90,0.00,,,0.00,weatherlink.com 1.10,2013-02-08 13:04:00,
2013-02-08 07:18:00,25.2,23.0,30.16,ESE,113,0.0,3.0,90,0.00,,,0.00,weatherlink.com 1.10,2013-02-08 13:18:00,
2013-02-08 07:34:00,25.2,23.0,30.16,WSW,240,0.0,0.0,90,0.00,,,0.00,weatherlink.com 1.10,2013-02-08 13:34:00,
2013-02-08 07:49:00,25.2,23.0,30.16,SW,235,0.0,2.0,90,0.00,,,0.00,weatherlink.com 1.10,2013-02-08 13:49:00,
2013-02-08 08:04:00,25.2,23.0,30.16,South,175,0.0,2.0,90,0.00,,,0.00,weatherlink.com 1.10,2013-02-08 14:04:00,
2013-02-08 08:19:00,25.2,23.0,30.17,South,183,0.0,4.0,90,0.00,,,0.00,weatherlink.com 1.10,2013-02-08 14:19:00,
2013-02-08 08:33:00,25.3,23.0,30.17,South,182,1.0,1.0,90,0.00,,,0.00,weatherlink.com 1.10,2013-02-08 14:33:00,
2013-02-08 08:49:00,25.4,23.0,30.17,South,185,0.0,4.0,90,0.00,,,0.00,weatherlink.com 1.10,2013-02-08 14:49:00,
2013-02-08 09:03:00,25.5,23.0,30.17,South,175,0.0,4.0,89,0.00,,,0.00,weatherlink.com 1.10,2013-02-08 15:03:00,
2013-02-08 09:19:00,25.6,23.0,30.17,SSE,162,1.0,3.0,89,0.00,,,0.00,weatherlink.com 1.10,2013-02-08 15:19:00,
2013-02-08 09:34:00,25.8,23.0,30.17,SE,138,0.0,4.0,90,0.00,,,0.00,weatherlink.com 1.10,2013-02-08 15:34:00,
2013-02-08 09:49:00,26.0,23.0,30.17,SSE,150,0.0,3.0,89,0.00,,,0.00,weatherlink.com 1.10,2013-02-08 15:49:00,
2013-02-08 10:04:00,26.1,23.0,30.17,SW,217,0.0,4.0,89,0.00,,,0.00,weatherlink.com 1.10,2013-02-08 16:04:00,
2013-02-08 10:19:00,26.3,24.0,30.17,SE,128,0.0,7.0,89,0.00,,,0.00,weatherlink.com 1.10,2013-02-08 16:19:00,
2013-02-08 10:37:00,26.8,24.0,30.17,South,171,0.0,5.0,88,0.00,,,0.00,weatherlink.com 1.10,2013-02-08 16:37:00,
2013-02-08 10:49:00,26.8,24.0,30.18,SSW,211,0.0,6.0,87,0.00,,,0.00,weatherlink.com 1.10,2013-02-08 16:49:00,
2013-02-08 11:05:00,26.7,23.0,30.19,SW,221,1.0,5.0,87,0.00,,,0.00,weatherlink.com 1.10,2013-02-08 17:05:00,
2013-02-08 11:20:00,26.7,23.0,30.19,SW,220,4.0,5.0,87,0.00,,,0.00,weatherlink.com 1.10,2013-02-08 17:20:00,
2013-02-08 11:35:00,27.0,24.0,30.19,WSW,240,2.0,7.0,87,0.00,,,0.00,weatherlink.com 1.10,2013-02-08 17:35:00,
2013-02-08 11:49:00,27.3,24.0,30.19,WSW,242,0.0,2.0,87,0.00,,,0.00,weatherlink.com 1.10,2013-02-08 17:49:00,
2013-02-08 12:04:00,27.8,24.0,30.19,SSE,156,1.0,5.0,86,0.00,,,0.00,weatherlink.com 1.10,2013-02-08 18:04:00,
2013-02-08 12:19:00,28.0,24.0,30.19,SSW,211,4.0,4.0,86,0.00,,,0.00,weatherlink.com 1.10,2013-02-08 18:19:00,
2013-02-08 12:34:00,28.5,25.0,30.18,SE,134,0.0,4.0,86,0.00,,,0.00,weatherlink.com 1.10,2013-02-08 18:34:00,
2013-02-08 12:50:00,28.8,25.0,30.17,SSE,161,0.0,7.0,85,0.00,,,0.00,weatherlink.com 1.10,2013-02-08 18:50:00,
2013-02-08 13:05:00,29.2,25.0,30.16,SW,215,0.0,8.0,83,0.00,,,0.00,weatherlink.com 1.10,2013-02-08 19:05:00,
2013-02-08 13:20:00,29.7,25.0,30.15,SSE,163,0.0,9.0,83,0.00,,,0.00,weatherlink.com 1.10,2013-02-08 19:20:00,
2013-02-08 13:35:00,30.3,26.0,30.13,SSE,150,5.0,7.0,83,0.00,,,0.00,weatherlink.com 1.10,2013-02-08 19:35:00,
2013-02-08 13:50:00,31.4,26.0,30.13,SE,135,3.0,9.0,81,0.00,,,0.00,weatherlink.com 1.10,2013-02-08 19:50:00,
2013-02-08 14:05:00,32.0,26.0,30.12,SSE,153,7.0,10.0,79,0.00,,,0.00,weatherlink.com 1.10,2013-02-08 20:05:00,
2013-02-08 14:20:00,32.2,26.0,30.10,South,171,4.0,8.0,79,0.00,,,0.00,weatherlink.com 1.10,2013-02-08 20:20:00,
2013-02-08 14:35:00,33.1,27.0,30.08,SW,224,3.0,10.0,77,0.00,,,0.00,weatherlink.com 1.10,2013-02-08 20:35:00,
2013-02-08 14:50:00,33.0,27.0,30.08,WSW,239,7.0,12.0,77,0.00,,,0.00,weatherlink.com 1.10,2013-02-08 20:50:00,
2013-02-08 15:05:00,32.8,27.0,30.07,South,183,4.0,11.0,78,0.00,,,0.00,weatherlink.com 1.10,2013-02-08 21:05:00,
2013-02-08 15:20:00,32.7,26.0,30.08,SSE,159,5.0,12.0,77,0.00,,,0.00,weatherlink.com 1.10,2013-02-08 21:20:00,
2013-02-08 15:35:00,32.4,27.0,30.07,SSE,158,3.0,10.0,79,0.00,,,0.00,weatherlink.com 1.10,2013-02-08 21:35:00,
2013-02-08 15:50:00,32.8,27.0,30.07,South,175,6.0,10.0,79,0.00,,,0.00,weatherlink.com 1.10,2013-02-08 21:50:00,
2013-02-08 16:05:00,32.9,26.0,30.06,SSE,147,1.0,9.0,77,0.00,,,0.00,weatherlink.com 1.10,2013-02-08 22:05:00,
2013-02-08 16:20:00,32.3,26.0,30.05,South,181,3.0,10.0,79,0.00,,,0.00,weatherlink.com 1.10,2013-02-08 22:20:00,
2013-02-08 16:35:00,32.3,27.0,30.05,SE,140,1.0,6.0,80,0.00,,,0.00,weatherlink.com 1.10,2013-02-08 22:35:00,
2013-02-08 16:50:00,32.0,27.0,30.04,SW,222,2.0,10.0,81,0.00,,,0.00,weatherlink.com 1.10,2013-02-08 22:50:00,
2013-02-08 17:05:00,31.6,27.0,30.05,WSW,240,2.0,7.0,82,0.00,,,0.00,weatherlink.com 1.10,2013-02-08 23:05:00,
2013-02-08 17:20:00,31.5,27.0,30.05,South,171,0.0,7.0,83,0.00,,,0.00,weatherlink.com 1.10,2013-02-08 23:20:00,
2013-02-08 17:35:00,31.3,27.0,30.05,South,177,3.0,6.0,83,0.00,,,0.00,weatherlink.com 1.10,2013-02-08 23:35:00,
2013-02-08 17:50:00,30.9,27.0,30.04,SSW,205,0.0,11.0,84,0.00,,,0.00,weatherlink.com 1.10,2013-02-08 23:50:00,
2013-02-08 18:05:00,30.5,26.0,30.04,SE,133,4.0,7.0,84,0.00,,,0.00,weatherlink.com 1.10,2013-02-09 00:05:00,
2013-02-08 18:20:00,30.2,26.0,30.03,SSE,163,0.0,6.0,85,0.00,,,0.00,weatherlink.com 1.10,2013-02-09 00:20:00,
2013-02-08 18:35:00,29.7,26.0,30.03,SSE,155,4.0,5.0,87,0.00,,,0.00,weatherlink.com 1.10,2013-02-09 00:35:00,
2013-02-08 18:50:00,29.3,26.0,30.03,SSE,157,0.0,6.0,88,0.00,,,0.00,weatherlink.com 1.10,2013-02-09 00:50:00,
2013-02-08 19:05:00,29.1,26.0,30.03,SSW,213,1.0,8.0,88,0.00,,,0.00,weatherlink.com 1.10,2013-02-09 01:05:00,
2013-02-08 19:20:00,29.0,26.0,30.03,SSE,157,3.0,8.0,89,0.00,,,0.00,weatherlink.com 1.10,2013-02-09 01:20:00,
2013-02-08 19:35:00,28.9,26.0,30.02,South,170,3.0,12.0,89,0.00,,,0.00,weatherlink.com 1.10,2013-02-09 01:35:00,
2013-02-08 19:50:00,28.9,26.0,30.02,South,179,2.0,11.0,89,0.00,,,0.00,weatherlink.com 1.10,2013-02-09 01:50:00,
2013-02-08 20:05:00,28.8,26.0,30.02,South,178,2.0,8.0,89,0.00,,,0.00,weatherlink.com 1.10,2013-02-09 02:05:00,
2013-02-08 20:21:00,28.8,26.0,30.02,SSE,161,4.0,7.0,89,0.00,,,0.00,weatherlink.com 1.10,2013-02-09 02:21:00,
2013-02-08 20:35:00,28.7,26.0,30.01,South,175,10.0,11.0,89,0.00,,,0.00,weatherlink.com 1.10,2013-02-09 02:35:00,
2013-02-08 20:51:00,28.7,26.0,30.01,SSE,157,0.0,7.0,89,0.00,,,0.00,weatherlink.com 1.10,2013-02-09 02:51:00,
2013-02-08 21:05:00,28.6,26.0,30.01,SSE,157,0.0,5.0,89,0.00,,,0.00,weatherlink.com 1.10,2013-02-09 03:05:00,
2013-02-08 21:21:00,28.8,26.0,30.00,SSE,153,3.0,11.0,89,0.00,,,0.00,weatherlink.com 1.10,2013-02-09 03:21:00,
2013-02-08 21:35:00,28.9,26.0,30.00,South,172,1.0,9.0,89,0.00,,,0.00,weatherlink.com 1.10,2013-02-09 03:35:00,
2013-02-08 21:50:00,28.9,26.0,30.00,South,177,3.0,10.0,89,0.00,,,0.00,weatherlink.com 1.10,2013-02-09 03:50:00,
2013-02-08 22:05:00,28.9,26.0,30.00,SE,125,7.0,8.0,89,0.00,,,0.00,weatherlink.com 1.10,2013-02-09 04:05:00,
2013-02-08 22:21:00,28.7,26.0,30.00,ESE,114,0.0,8.0,89,0.00,,,0.00,weatherlink.com 1.10,2013-02-09 04:21:00,
2013-02-08 22:35:00,28.7,26.0,30.01,SSW,207,1.0,5.0,89,0.00,,,0.00,weatherlink.com 1.10,2013-02-09 04:35:00,
2013-02-08 22:50:00,28.5,26.0,30.01,SSW,197,2.0,6.0,90,0.00,,,0.00,weatherlink.com 1.10,2013-02-09 04:50:00,
2013-02-08 23:05:00,28.3,26.0,30.01,SE,125,2.0,9.0,90,0.00,,,0.00,weatherlink.com 1.10,2013-02-09 05:05:00,
2013-02-08 23:21:00,28.1,26.0,30.01,SE,142,1.0,9.0,91,0.00,,,0.00,weatherlink.com 1.10,2013-02-09 05:21:00,
2013-02-08 23:35:00,27.9,26.0,30.01,SW,226,1.0,8.0,91,0.00,,,0.00,weatherlink.com 1.10,2013-02-09 05:35:00,
2013-02-08 23:50:00,28.0,26.0,30.01,SW,221,3.0,6.0,92,0.00,,,0.00,weatherlink.com 1.10,2013-02-09 05:50:00,